Regional Weather Roundup
Issued by NWS

Home | Current Version | Previous Version | Text Only | Print | Product List | Glossary Off
Versions: 1 2 3 4 5 6 7 8 9 10 11 12 13 14 15 16 17 18 19 20 21 22 23 24 25 26 27 28 29 30 31 32 33 34 35 36 37 38 39 40 41 42 43 44 45 46 47 48 49 50

000
ASUS43 KDMX 202106
RWRIA

WEATHER ROUNDUP FOR IOWA
NATIONAL WEATHER SERVICE DES MOINES IA
400 PM CDT WED SEP 20 2017

NOTE: "FAIR" INDICATES FEW OR NO CLOUDS BELOW 12,000 FEET WITH NO
SIGNIFICANT WEATHER AND/OR OBSTRUCTIONS TO VISIBILITY.

* - THESE STATIONS ARE NOT NWS STATIONS...THUS NOT UNDER NWS
QUALITY CONTROL.  THEY ALSO DO NOT REPORT WEATHER SUCH
AS PRECIPITATION OR FOG.

IAZ001>003-012>014-020>022-031>034-043>046-202200-
   NORTHWEST IOWA

CITY           SKY/WX    TMP DP  RH WIND       PRES   REMARKS
CARROLL *      SUNNY     79  54  41 NW9G16    29.84S
CHEROKEE *     SUNNY     74  48  39 NW6       29.86F
DENISON *      SUNNY     75  54  46 N9        29.87S
LE MARS *      SUNNY     75  46  35 VRB5      29.86F
ORANGE CITY *  SUNNY     73  48  40 NW8       29.87S
SHELDON *      SUNNY     73  43  33 NW8       29.86S
SIOUX CITY     SUNNY     76  51  41 NE5       29.86F
SPENCER        SUNNY     76  46  34 N8        29.87S
STORM LAKE *   SUNNY     75  45  33 N9        29.87S
$$

IAZ055>058-069>071-079>083-090>094-202200-
   SOUTHWEST IOWA

CITY           SKY/WX    TMP DP  RH WIND       PRES   REMARKS
ATLANTIC *     SUNNY     81  61  50 N12       29.83R HX  81
AUDUBON *      SUNNY     79  61  53 NW8       29.86R HX  80
CLARINDA *     CLOUDY    84  68  58 N7        29.82S HX  87
COUNCIL BLFS * SUNNY     79  59  50 N12       29.84S HX  80
CRESTON *      PTSUNNY   84 -29   1 W6        29.82S HX  80
HARLAN  *      SUNNY     79  57  47 N10       29.87S HX  80
LAMONI         PTSUNNY   86  70  58 S13       29.81R HX  90
RED OAK *      SUNNY     84  63  48 VRB5G12   29.82S HX  85
SHENANDOAH *   SUNNY     84  63  48 N8        29.82R HX  85
$$

IAZ047>049-059>061-072>074-084-202200-
   CENTRAL IOWA

CITY           SKY/WX    TMP DP  RH WIND       PRES   REMARKS
AMES           PTSUNNY   83  65  54 N12       29.80R HX  85
ANKENY *       PTSUNNY   82  70  65 NW8       29.79S HX  86
BOONE *        SUNNY     82  61  47 NW9G16    29.81R HX  83
CHARITON *     PTSUNNY   84  72  65 S6        29.81R HX  89
DES MOINES     PTSUNNY   86  69  56 S5        29.78R HX  90
GRINNELL*      CLOUDY    84  69  60 S8        29.81S HX  88
KNOXVILLE *    PTSUNNY   86  70  58 S10       29.79R HX  90
MARSHALLTOWN   MOSUNNY   84  71  65 S12       29.78S HX  89
NEWTON *       PTSUNNY   86  70  58 SW10G17   29.79S HX  90
PELLA *        MOSUNNY   85  69  59 S7        29.81R HX  89
PERRY *          N/A     85  56  36 N8        29.81S HX  84
$$

IAZ004>006-015-016-023>025-035-036-202200-
   NORTH CENTRAL IOWA

CITY           SKY/WX    TMP DP  RH WIND       PRES   REMARKS
ALGONA *       SUNNY     77  52  41 N8G15     29.86R
CLARION *      SUNNY     79  57  47 N10       29.84R HX  80
ESTHERVILLE    SUNNY     73  49  42 NW8       29.86S
FORT DODGE *   SUNNY     78  56  46 NW7       29.85R
MASON CITY     SUNNY     78  56  46 N12G18    29.85R
FOREST CITY *    N/A     75  55  50 N8        29.85R
IOWA FALLS *     N/A     84  64  50 NW7       29.82R HX  85
$$

IAZ007>011-017>019-026>030-037>042-050>054-066-202200-
   NORTHEAST IOWA

CITY           SKY/WX    TMP DP  RH WIND       PRES   REMARKS
CEDAR RAPIDS   CLOUDY    88  70  55 SW12      29.79S HX  93
CHARLES CITY * CLOUDY    82  64  54 NW10      29.81S HX  84
CLINTON *      SUNNY    N/A N/A N/A S20G26    29.78F
DECORAH *      CLOUDY    81  72  74 CALM      29.78F HX  84
DUBUQUE        CLOUDY    87  71  58 SW9       29.80R HX  93
MONTICELLO *   PTSUNNY   90  72  55 SW10      29.78S HX  96
OELWEIN *      CLOUDY    84  72  65 SW12      29.79S HX  89
WATERLOO       PTSUNNY   82  68  62 S9        29.77S HX  85
$$

IAZ064-065-067-068-078-202200-
   EAST CENTRAL IOWA

CITY           SKY/WX    TMP DP  RH WIND       PRES   REMARKS
DAVENPORT      SUNNY     92  69  47 S21       29.79F HX  97
IOWA CITY      PTSUNNY   93  70  46 SW8G20    29.78S HX  99
MT. PLEASANT * SUNNY     94  67  42 S12G22    29.78S HX  97
MUSCATINE *    MOSUNNY   95  70  43 S16G26    29.77S HX 101
QUAD CITIES    SUNNY     94  69  44 S13G23    29.76F HX  99
$$

IAZ062-063-075>077-085>089-095>099-202200-
   SOUTHEAST IOWA

CITY           SKY/WX    TMP DP  RH WIND       PRES   REMARKS
BURLINGTON     SUNNY     93  72  50 S13       29.78F HX 101
FAIRFIELD *    PTSUNNY   91  68  46 SW12G18   29.79S HX  95
FORT MADISON * SUNNY     95  72  46 S14G21    29.79F HX 103
KEOKUK *       SUNNY     93  70  46 S13G23    29.78F HX  99
OSKALOOSA *    PTSUNNY   87  70  57 SW12G17   29.81S HX  91
CENTERVILLE *    N/A     84  72  65 SW7       29.83F HX  89
OTTUMWA        CLOUDY    88  70  55 SW12      29.80S HX  93
WASHINGTON *   PTSUNNY   93  72  49 SW13      29.79S HX 100
$$

ABBREVIATIONS USED IN REMARKS
   TC - TEMPERATURES IN CELSIUS
  WCI - WIND CHILL INDEX
   HX - HEAT INDEX
  VSB - VISIBILITY
$$





USA.gov is the U.S. government's official web portal to all federal, state and local government web resources and services.